GW1540 Weather Reports


time (UTC)temp
F
wind
direction
speed
knots
gust
knots
rain 1hr
in
rain 24hr
in
rain mn
in
humidity
%
barometer
mb
20260502194711 42 219 0.0 0.0 0.00 0.00 0.00 81 1024.0
20260502191705 45 219 0.0 0.0 0.00 0.00 0.00 77 1023.9
20260502184715 47 219 0.9 1.7 0.00 0.00 0.00 76 1023.5
20260502183147 49 219 0.0 1.7 0.00 0.00 0.00 75 1023.6
20260502180205 51 219 0.0 2.6 0.00 0.00 0.00 69 1023.4
20260502170205 59 234 0.0 5.2 0.00 0.00 0.00 49 1023.6
20260502161658 62 248 2.6 7.0 0.00 0.00 0.00 45 1023.8
20260502151657 63 219 1.7 7.0 0.00 0.00 0.00 43 1024.2
20260502130151 63 17 0.9 9.6 0.00 0.00 0.00 47 1025.6
20260502123211 62 254 5.2 8.7 0.00 0.00 0.00 46 1025.9
20260502120156 62 349 2.6 7.0 0.00 0.00 0.00 46 1026.1
20260502113150 62 257 3.5 8.7 0.00 0.00 0.00 46 1026.5
20260502110222 61 227 2.6 6.1 0.00 0.00 0.00 47 1027.0
20260502104645 60 192 0.9 6.1 0.00 0.00 0.00 51 1027.1
20260502101719 60 232 2.6 7.8 0.00 0.00 0.00 50 1027.5
20260502100153 60 254 2.6 7.0 0.00 0.00 0.00 48 1027.5
20260502090201 58 183 1.7 7.0 0.00 0.00 0.00 47 1027.9
20260502070215 50 202 0.0 0.0 0.00 0.00 0.00 70 1028.4
20260502064705 46 202 0.0 0.0 0.00 0.00 0.00 76 1028.6
20260502063019 39 202 0.0 0.0 0.00 0.00 0.00 95 1028.9
20260502053212 30 202 0.0 0.0 0.00 0.00 0.00 94 1029.2
20260502051648 28 202 0.0 0.0 0.00 0.00 0.00 94 1029.4
20260502044705 27 202 0.0 0.0 0.00 0.00 0.00 93 1029.3
20260502043152 27 202 0.0 0.0 0.00 0.00 0.00 93 1029.2
20260502040216 27 209 0.0 0.0 0.00 0.00 0.00 92 1029.1
20260502033218 27 209 0.0 0.0 0.00 0.00 0.00 92 1029.2
20260502030206 28 209 0.0 0.0 0.00 0.00 0.00 92 1029.2
20260502024650 28 209 0.0 0.0 0.00 0.00 0.00 92 1029.2
20260502023147 28 209 0.0 0.0 0.00 0.00 0.00 91 1029.2
20260502020206 28 209 0.0 0.0 0.00 0.00 0.00 92 1029.3
20260502014701 28 209 0.0 0.0 0.00 0.00 0.00 91 1029.3
20260502013144 29 209 0.0 0.0 0.00 0.00 0.00 91 1029.4
20260502010204 29 209 0.0 0.0 0.00 0.00 0.00 90 1029.1
20260502003206 30 209 0.0 0.0 0.00 0.00 0.00 90 1029.1
20260502001644 31 209 0.0 0.0 0.00 0.00 0.00 90 1029.2
20260501234715 31 209 0.0 0.0 0.00 0.00 0.00 90 1029.3
20260501231716 31 209 0.0 0.0 0.00 0.00 0.00 89 1029.3
20260501230202 32 209 0.0 0.0 0.00 0.00 0.00 90 1029.3
20260501223204 32 209 0.0 0.0 0.00 0.00 0.00 88 1029.2
20260501220248 33 209 0.0 0.0 0.00 0.00 0.00 87 1028.9
20260501213213 33 209 0.0 1.7 0.00 0.00 0.00 89 1028.5
20260501210217 33 209 0.0 1.7 0.00 0.00 0.00 86 1028.3
20260501204650 34 209 0.0 1.7 0.00 0.00 0.00 85 1028.2
20260501201659 36 209 0.0 0.0 0.00 0.00 0.00 83 1028.0